This is the latest recevied weather packets stored in our database for station/object JA0ZJX-13. If no packets are shown the sender has not sent any weather packets the latest 10 day(s).
| Time | Temp. | Humidity | Pressure | Rain* | Wind** | Luminosity | Snow |
|---|---|---|---|---|---|---|---|
| 1777895010 | 12.22° C | 62% | 1009.5 hPa | 0 mm | - | 0 W/m² | - |
| 1777894420 | 12.22° C | 62% | 1009.2 hPa | 0 mm | - | 0 W/m² | - |
| 1777893808 | 12.22° C | 60% | 1008.7 hPa | 0 mm | - | 0 W/m² | - |
| 1777893220 | 12.78° C | 59% | 1008.4 hPa | 0 mm | - | 0 W/m² | - |
| 1777892609 | 12.78° C | 57% | 1008.1 hPa | 0 mm | - | 0 W/m² | - |
| 1777892018 | 12.78° C | 55% | 1007.7 hPa | 0 mm | - | 0 W/m² | - |
| 1777891409 | 12.78° C | 55% | 1007.5 hPa | 0 mm | - | 0 W/m² | - |
| 1777890819 | 12.78° C | 54% | 1007.1 hPa | 0 mm | - | 0 W/m² | - |
| 1777890209 | 12.78° C | 54% | 1006.8 hPa | 0 mm | - | 0 W/m² | - |
| 1777889618 | 12.78° C | 54% | 1006.3 hPa | 0 mm | - | 0 W/m² | - |
| 1777889013 | 12.78° C | 55% | 1005.8 hPa | 0 mm | - | 0 W/m² | - |
| 1777888421 | 13.33° C | 55% | 1005.7 hPa | 0 mm | - | 0 W/m² | - |
| 1777887812 | 13.33° C | 55% | 1005.5 hPa | 0 mm | - | 0 W/m² | - |
| 1777887219 | 13.33° C | 54% | 1005.4 hPa | 0 mm | - | 5 W/m² | - |
| 1777886613 | 13.33° C | 54% | 1005.4 hPa | 0 mm | - | 18 W/m² | - |
| 1777886022 | 13.33° C | 55% | 1005.5 hPa | 0 mm | - | 32 W/m² | - |
| 1777885411 | 13.89° C | 55% | 1005.5 hPa | 0 mm | - | 39 W/m² | - |
| 1777884817 | 13.89° C | 53% | 1005.4 hPa | 0 mm | - | 54 W/m² | - |
| 1777884210 | 13.89° C | 55% | 1005.6 hPa | 0 mm | - | 74 W/m² | - |
| 1777883618 | 14.44° C | 56% | 1005.7 hPa | 0 mm | - | 114 W/m² | - |
| 1777883008 | 14.44° C | 57% | 1005.1 hPa | 0 mm | - | 53 W/m² | - |
| 1777882421 | 15° C | 55% | 1004.8 hPa | 0 mm | - | 83 W/m² | - |
| 1777881811 | 15.56° C | 56% | 1004.5 hPa | 0 mm | - | 206 W/m² | - |
| 1777881219 | 15.56° C | 54% | 1004.3 hPa | 0 mm | - | 294 W/m² | - |
| 1777880609 | 15.56° C | 56% | 1004.1 hPa | 0 mm | - | 353 W/m² | - |
* Rain latest hour (hover to see other rain measurements)
** Current wind speed in m/s (hover to see current wind gust speed)